Regional Weather Roundup
Issued by NWS Raleigh/Durham, NC

Home | Current Version | Previous Version | Text Only | Print | Product List | Glossary On
Versions: 1 2 3 4 5 6 7 8 9 10 11 12 13 14 15 16 17 18 19 20 21 22 23 24 25 26 27 28 29 30 31 32 33 34 35 36 37 38 39 40 41 42 43 44 45 46 47 48 49 50
000
ASUS42 KRAH 020010
RWRRAH
NORTH CAROLINA WEATHER ROUNDUP
NATIONAL WEATHER SERVICE RALEIGH NC
700 PM EST SUN MAR 01 2015

NOTE: "FAIR" INDICATES FEW OR NO CLOUDS BELOW 12,000 FEET WITH NO
SIGNIFICANT WEATHER AND/OR OBSTRUCTIONS TO VISIBILITY.

NCZ001-053-055-056-065-067-020100-
WESTERN NORTH CAROLINA

CITY           SKY/WX    TMP DP  RH WIND       PRES   REMARKS
ASHEVILLE      MOCLDY    48  43  82 S6        30.30F
JEFFERSON      PTCLDY    51  40  66 W6        30.26F
MORGANTON      CLOUDY    42  40  93 CALM      30.37S
HICKORY        CLOUDY    39  37  92 S3        30.34S FOG
RUTHERFORDTON  CLOUDY    40  40 100 CALM      30.35F FOG
MOUNT AIRY     CLOUDY    39  35  84 S3        30.33F
BOONE          MOCLDY    51  40  66 W9        30.28S
$$

NCZ021-022-025-041-071-084-088-020100-
CENTRAL NORTH CAROLINA

CITY           SKY/WX    TMP DP  RH WIND       PRES   REMARKS
CHARLOTTE      CLOUDY    39  36  89 S3        30.37F
GREENSBORO     CLOUDY    36  34  92 W3        30.34F FOG
WINSTON-SALEM  CLOUDY    38  34  85 CALM      30.35S
RALEIGH-DURHAM LGT RAIN  34  32  93 SW3       30.38R FOG
FORT BRAGG     MIX PCPN  37  36  93 S5        30.37F WCI  34
FAYETTEVILLE   CLOUDY    38  36  92 SW3       30.39S
BURLINGTON     CLOUDY    35  32  88 CALM      30.35F
LAURINBURG     LGT RAIN  38  37  97 CALM      30.40F FOG
$$

NCZ011-015-027-028-043-044-047-080-103-020100-
NORTHEASTERN NORTH CAROLINA

CITY           SKY/WX    TMP DP  RH WIND       PRES   REMARKS
ROCKY MT-WILSO LGT RAIN  35  34  96 CALM      30.36F FOG
GREENVILLE     CLOUDY    36  34  93 NW3       30.39S
WASHINGTON     DRIZZLE   36  35  95 NW3       30.38F
ELIZABETH CITY LGT RAIN  37  36  96 NW10      30.36S VSB 1   WCI  30
MANTEO         DRIZZLE   45  43  93 CALM      30.32R
CAPE HATTERAS  CLOUDY    52  50  93 SW8       30.33S
$$

NCZ078-087-090-091-093-098-101-020100-
SOUTHEASTERN NORTH CAROLINA

CITY           SKY/WX    TMP DP  RH WIND       PRES   REMARKS
LUMBERTON      CLOUDY    39  37  92 N3        30.40S FOG
GOLDSBORO      CLOUDY    36  36 100 CALM      30.36F
KINSTON        LGT RAIN  37  36  93 NW5       30.39F WCI  34
KENANSVILLE    CLOUDY    37  36  97 NW3       30.40S FOG
NEW BERN       CLOUDY    44  41  89 NW9       30.38R
CHERRY POINT   RAIN      49  47  93 NE6       30.35F
BEAUFORT       CLOUDY    58  57  97 W3        30.34S
JACKSONVILLE   RAIN      45  43  93 NW13      30.37R FOG
WILMINGTON     LGT RAIN  47  45  93 N9        30.36S FOG
$$




USA.gov is the U.S. government's official web portal to all federal, state and local government web resources and services.